Location: *
(51.2167°N, 10.0667°E)
Time: 20:11:15
(UTC+00:00)

Cosmos 2266 Rocket - Pass Details

Date: 12 December 2019
Orbit: 933 x 1009 km, 82.9° (Epoch: 22 January)

Event Time Altitude Azimuth Distance (km) Brightness Sun altitude
Rises 18:25:59 0° 186° (S) 3,728 7.1 -29.0°
Reaches altitude 10° 18:28:30 10° 186° (S) 2,781 6.4 -29.4°
Enters shadow 18:33:59 68° 180° (S) 1,083 4.1 -30.3°
